Probability
0 0 0 0 0 0 0 0 0 0 0 0 0 0 0 0 0 0 0 0 0 0 0 0 0 1 2 3 3 3 3 5 5 6 8 8 7 6 6 6 6 6 6 6
0 0 0 0 0 0 0 0 0 0 0 0 0 0 0 0 0 0 0 1 1 0 0 0 0 1 2 3 4 4 4 4 4 6 8 9 7 7 7 7 7 6 6 6
0 0 0 0 0 0 0 0 0 0 0 0 0 0 1 1 0 1 2 3 2 1 1 3 3 3 3 4 4 5 6 7 7 8 9 9 9 8 8 8 8 6 5 6
0 0 0 0 0 0 0 0 0 0 0 0 0 0 1 2 2 3 4 5 4 3 4 7 8 7 5 5 6 8 9 11 13 13 11 11 11 9 9 10 10 7 6 6
0 0 0 0 0 0 0 0 0 0 0 0 0 0 1 2 2 4 5 6 6 7 8 10 10 10 9 8 9 10 12 15 18 18 17 15 13 12 12 13 13 11 9 9
0 0 0 0 0 0 0 0 0 0 0 0 0 0 0 1 2 3 4 5 7 9 11 12 12 12 13 13 12 11 13 18 21 20 20 19 17 15 15 16 16 14 11 11
0 0 0 0 0 0 0 0 0 0 0 0 0 0 0 0 0 1 2 4 7 11 13 14 14 15 16 17 16 14 16 22 23 22 22 23 22 18 17 17 18 17 15 14
0 0 0 0 0 0 0 0 0 0 0 0 0 0 0 0 0 1 2 5 9 14 16 15 15 16 17 18 19 18 20 25 25 24 26 28 27 23 19 20 20 20 20 20
0 0 0 0 0 0 0 0 0 0 0 0 0 0 0 1 0 1 4 6 11 17 18 16 14 15 16 17 18 19 22 25 24 23 27 30 29 26 24 23 23 24 25 25
0 0 0 0 0 0 0 0 0 0 0 0 0 0 0 0 0 2 5 7 11 17 19 19 17 16 15 15 16 18 21 22 21 21 24 26 26 25 26 25 25 26 26 26
0 0 0 0 0 0 0 0 0 0 0 0 0 0 0 0 0 2 7 11 13 16 18 20 20 18 15 13 13 15 17 19 20 20 22 25 25 26 27 28 26 25 26 26
0 0 0 0 0 0 0 0 0 0 0 0 0 0 1 1 2 6 13 20 20 17 17 19 20 18 15 14 13 13 12 14 16 18 19 22 26 29 32 31 28 25 25 24
0 0 0 0 0 0 0 0 0 0 0 0 0 1 2 5 8 13 20 25 23 18 18 19 20 19 17 17 17 15 12 11 12 14 15 18 22 28 31 31 28 25 23 22
0 0 0 0 0 0 0 0 0 0 0 0 0 1 3 7 14 19 23 23 20 19 20 21 22 24 22 20 19 17 15 14 14 15 16 17 19 22 24 24 23 23 22 21
0 0 0 0 0 0 0 0 0 0 0 1 1 2 5 10 16 19 19 18 16 17 20 23 25 27 25 20 17 16 17 18 21 22 21 19 18 19 20 19 20 21 22 21
0 0 0 0 0 0 1 1 0 0 1 2 2 2 7 11 14 16 15 15 15 18 20 22 25 28 25 19 16 16 17 19 23 25 24 21 19 19 20 19 21 23 23 22
0 0 0 0 0 0 1 1 0 0 2 4 3 4 7 11 15 16 15 14 17 21 21 21 23 26 25 21 20 20 18 19 22 25 25 23 22 22 21 21 25 27 26 24
0 0 0 0 0 0 1 1 0 0 2 6 7 7 9 13 16 18 17 16 19 21 22 21 22 25 26 25 25 24 23 23 25 26 27 28 28 27 25 23 25 28 27 25
0 0 0 0 0 0 0 0 0 0 2 5 8 10 12 14 18 20 20 18 18 18 18 18 20 24 27 28 28 27 28 30 30 30 30 30 31 31 28 26 25 26 26 25
0 0 1 1 0 0 0 0 0 0 2 5 8 11 12 14 19 22 21 18 15 14 14 15 17 21 26 28 27 26 27 29 30 31 31 31 31 30 27 25 25 25 24 23
0 0 1 1 0 0 1 1 2 3 5 8 10 12 15 17 21 22 18 14 13 12 14 15 16 19 22 23 22 21 21 24 27 28 27 27 26 25 24 23 23 22 21 21
0 1 2 2 2 2 3 4 5 8 11 11 12 14 18 21 21 19 14 11 12 15 17 17 18 20 21 20 18 16 16 20 23 24 23 23 22 21 22 24 23 21 20 19
1 2 3 3 4 5 6 6 8 11 12 11 11 13 16 19 19 17 14 12 14 17 19 19 20 21 21 19 16 15 15 17 19 21 22 22 20 21 24 27 26 23 20 19
1 2 3 4 4 4 5 6 8 10 11 10 9 10 13 15 17 17 15 15 15 16 18 19 20 21 21 19 16 14 14 15 16 18 20 20 19 19 21 24 25 23 20 19
0 1 2 3 2 2 4 5 7 9 10 9 8 9 10 13 16 17 18 17 15 14 15 17 19 21 21 19 15 13 13 14 14 15 16 17 17 16 16 19 21 19 16 16
0 0 1 1 1 1 3 5 6 8 10 10 9 9 10 12 15 17 19 18 15 14 14 15 17 20 21 19 14 11 11 13 13 13 13 15 15 14 14 16 16 13 11 11
Wind_Speed
8 9 8 5 5 6 5 6 4 1 2 6 6 6 7 9 9 9 9 9 9 9 9 9 9 9 8 8 7 7 6 6 5 4 4 3 3 2 2 1 1 1 1 1
9 11 7 5 6 7 8 8 5 3 2 5 5 6 6 8 9 9 9 9 9 9 9 10 10 10 10 9 8 8 7 6 6 4 3 2 1 1 1 1 1 1 1 1
13 4 4 7 8 9 9 8 5 3 3 6 7 7 6 7 8 8 8 8 8 8 9 10 10 10 10 10 10 8 7 7 6 5 4 3 3 3 2 2 2 2 2 2
11 7 7 9 9 9 7 4 5 5 7 4 5 4 6 7 8 9 9 9 9 9 9 10 11 11 11 10 9 9 8 7 7 6 5 5 4 3 2 2 2 2 2 2
9 8 9 10 7 8 5 2 5 7 8 7 6 7 3 7 7 9 9 9 9 8 9 10 10 11 10 10 9 8 8 7 7 6 6 5 4 3 3 2 2 2 3 3
9 6 8 7 6 6 5 6 6 8 8 8 5 7 3 4 5 5 7 8 8 7 7 8 9 8 9 9 9 9 8 8 7 7 6 6 5 4 3 3 2 3 2 3
12 11 9 7 9 9 10 10 7 8 8 5 3 7 2 1 2 3 5 7 7 7 8 8 9 9 9 9 9 9 9 8 8 8 7 6 6 6 5 4 3 3 2 2
12 10 11 9 10 8 11 12 9 7 6 4 6 6 1 2 2 3 4 5 7 8 8 8 8 8 8 8 8 8 8 8 7 7 7 6 6 5 4 4 3 3 2 2
9 8 8 8 8 10 10 11 10 10 9 8 5 4 4 4 4 4 5 6 7 7 7 7 7 7 8 7 7 7 8 7 7 7 7 6 6 5 4 4 4 3 2 2
9 8 8 8 9 9 10 9 8 10 8 9 7 7 3 5 5 6 6 6 6 6 6 6 6 6 7 7 6 6 6 6 6 6 6 5 5 5 5 4 3 3 3 2
11 10 8 10 11 11 10 11 9 9 9 9 8 3 1 2 4 5 5 5 6 6 6 6 6 6 6 6 6 6 5 6 5 5 5 4 5 5 5 5 4 4 3 3
10 10 9 9 7 7 10 11 11 10 9 9 10 2 4 0 2 4 4 4 4 5 5 6 6 6 6 6 6 6 5 5 4 4 5 5 4 4 5 5 5 5 4 4
7 9 9 10 11 10 9 10 11 12 10 10 11 3 4 2 2 3 3 4 5 4 5 5 5 5 5 4 4 4 4 4 5 5 5 5 5 4 4 4 4 4 5 4
7 11 11 10 6 7 10 10 11 12 11 11 11 6 2 1 2 3 3 4 4 5 5 5 5 4 4 4 4 3 3 4 4 5 5 5 4 4 4 4 4 4 4 5
8 11 10 8 6 7 9 10 11 13 13 12 8 7 3 2 2 3 3 4 5 5 4 4 4 4 3 3 4 4 3 3 4 4 4 4 3 4 4 4 4 4 4 4
7 8 8 9 9 9 10 11 11 12 12 10 9 6 1 2 3 3 3 4 4 4 4 3 3 3 3 3 4 4 4 5 5 4 4 3 3 3 4 4 4 4 4 4
7 8 9 10 8 10 13 11 11 10 9 10 10 4 4 4 4 4 3 4 4 3 3 3 3 3 3 4 4 5 4 4 4 4 4 4 4 4 3 3 3 4 4 4
8 9 8 9 8 14 5 1 5 7 6 7 5 3 4 4 4 3 3 2 3 2 3 3 3 3 3 3 4 4 4 4 4 4 4 4 4 4 4 3 3 3 3 4
8 8 8 9 13 12 7 5 5 7 7 5 6 5 4 4 5 5 2 2 2 2 2 2 2 2 2 3 3 3 3 3 3 3 3 3 4 4 4 4 4 4 3 4
7 8 10 10 12 12 4 4 2 6 7 3 4 5 5 6 6 3 3 3 3 3 3 2 2 3 2 2 2 3 3 3 3 2 3 3 3 4 4 4 4 3 3 4
9 9 11 12 12 7 3 3 5 8 0 3 2 3 4 3 1 4 4 4 4 4 4 3 3 3 2 2 2 2 2 2 2 2 2 3 3 4 3 3 3 3 4 4
8 8 10 10 12 6 4 3 3 3 4 2 2 2 2 3 4 4 4 4 5 5 5 4 3 3 3 2 2 1 1 0 1 2 3 3 3 3 3 3 3 3 4 4
6 5 4 5 2 4 2 1 2 2 2 2 2 2 3 4 4 4 4 4 4 4 4 4 4 4 3 3 2 1 1 1 1 2 2 2 3 3 3 3 4 4 4 3
4 2 4 3 2 2 2 1 1 1 1 1 2 2 3 4 4 4 4 4 4 4 3 4 3 3 3 3 2 2 1 1 1 1 2 2 3 3 2 3 3 3 3 3
2 3 5 4 2 3 3 2 1 1 2 2 3 2 2 4 4 4 4 4 3 3 3 3 3 2 2 2 2 2 2 1 1 1 1 2 2 2 2 2 1 2 2 1
4 4 5 3 2 2 1 1 1 2 3 3 3 3 2 3 4 4 4 3 3 3 3 2 2 2 2 2 2 2 2 1 1 1 1 2 2 1 2 1 1 0 1 1
Wind_Direction
195 224 225 228 245 279 271 264 256 211 201 232 236 234 199 194 203 201 195 193 195 196 187 185 188 188 186 186 187 188 190 182 189 192 198 189 183 187 181 189 163 199 236 193
201 223 231 250 241 244 250 254 242 197 180 252 251 242 211 198 206 207 203 199 198 194 187 187 191 193 194 190 192 190 190 187 192 186 196 198 201 199 192 179 152 216 212 229
225 211 204 229 227 232 239 251 259 255 201 219 254 226 192 188 202 204 208 208 203 199 194 190 193 196 198 196 195 194 192 188 191 190 192 191 190 206 186 180 169 194 207 210
231 225 219 230 229 238 235 234 254 244 244 221 244 259 171 179 194 201 203 201 201 199 198 195 193 196 198 197 193 191 190 190 187 192 201 204 205 208 204 200 167 171 192 207
215 220 225 232 231 241 253 237 240 243 251 257 227 259 181 181 203 204 203 200 201 200 200 195 194 194 195 191 188 184 185 188 187 194 197 206 212 211 200 190 172 194 178 199
233 221 233 237 228 229 209 205 211 229 240 244 238 259 241 185 212 196 191 191 195 190 188 187 187 186 188 186 186 183 182 187 187 194 200 207 214 216 210 200 191 200 189 192
216 215 211 220 215 198 213 225 222 222 224 233 188 247 269 108 193 208 190 184 184 180 178 177 180 181 184 186 187 184 183 186 187 193 199 205 212 210 207 213 206 223 215 196
213 208 203 209 227 221 218 238 248 255 256 234 190 239 188 112 169 192 185 177 175 177 173 175 177 178 179 180 183 182 184 186 186 191 197 203 209 213 207 209 227 212 231 228
225 215 186 205 223 233 221 233 257 268 267 266 229 225 192 168 185 186 175 170 171 170 165 167 168 171 170 174 180 183 183 184 188 191 194 200 206 217 219 215 222 219 213 213
242 232 204 194 207 216 247 243 236 247 256 262 247 234 227 188 198 181 178 176 166 160 159 155 157 161 163 169 173 178 180 183 190 195 202 195 201 210 219 230 229 235 232 230
242 236 205 199 216 217 206 219 236 251 260 267 266 247 82 204 195 191 181 173 162 159 155 151 150 152 156 163 166 168 168 176 184 193 199 202 201 207 211 214 216 216 219 216
223 242 232 216 207 240 234 233 231 239 243 254 273 277 92 127 185 187 176 158 150 151 147 146 144 147 158 162 163 162 169 173 180 190 192 197 197 204 210 205 205 207 206 211
202 236 229 211 195 200 221 229 235 249 253 251 258 247 115 121 158 164 162 150 140 142 145 148 148 151 157 157 159 161 174 176 184 189 188 188 195 200 208 208 204 203 199 202
235 238 244 249 236 203 211 219 228 240 248 251 255 264 202 183 179 160 152 148 146 144 146 153 153 155 157 162 162 170 180 181 184 184 182 190 199 202 202 205 207 203 199 201
234 239 240 260 260 238 234 227 225 236 253 266 268 262 254 225 192 170 162 156 154 152 153 155 158 161 169 173 179 179 182 186 192 187 185 191 200 202 201 204 208 203 208 210
233 245 236 237 236 235 237 236 234 237 244 249 255 253 251 151 163 172 173 167 165 164 165 165 164 166 178 188 190 188 189 194 191 190 194 186 189 190 195 202 205 202 204 212
224 231 237 242 222 235 238 234 238 236 241 246 249 242 195 184 179 187 179 177 178 176 170 171 171 180 191 198 196 196 195 193 191 196 196 186 186 182 189 201 198 202 203 205
231 234 240 245 227 242 249 227 242 245 247 248 240 214 210 198 180 168 172 174 169 175 176 185 183 177 183 185 187 196 185 187 196 199 197 193 191 187 186 194 202 206 206 208
239 230 242 243 240 243 216 197 219 235 238 235 215 200 190 172 176 161 134 151 153 149 154 173 168 151 156 159 167 177 178 177 189 196 198 198 197 199 199 200 205 207 208 208
211 223 238 237 249 252 232 138 192 241 228 188 203 197 185 189 218 150 132 131 122 111 105 99 100 107 106 115 159 171 175 177 189 200 205 203 202 206 207 205 208 205 208 211
203 213 231 239 245 247 63 130 196 231 100 109 168 185 184 196 349 103 116 110 107 105 103 103 100 100 98 112 142 164 171 187 198 199 197 189 194 202 201 203 209 211 212 214
230 225 225 238 245 234 83 164 230 23 55 102 122 134 142 120 105 113 115 112 107 106 101 98 96 84 77 88 118 127 147 255 220 204 201 190 197 211 183 195 207 212 217 214
243 275 269 264 289 58 109 118 42 38 89 102 113 121 136 135 128 124 117 111 103 97 94 91 91 86 74 66 69 70 27 317 253 223 210 202 206 214 207 201 201 202 204 221
192 265 258 246 177 134 137 114 80 74 111 110 121 138 149 141 131 123 115 108 100 94 92 93 94 88 81 70 51 28 6 331 269 246 229 214 205 208 208 225 214 213 216 224
286 222 232 228 190 187 192 181 137 105 109 116 125 132 138 141 136 129 124 117 109 104 97 93 93 86 73 68 51 24 10 347 306 259 250 247 227 210 220 232 263 251 252 268
234 244 254 263 189 231 183 149 178 159 141 134 128 123 127 137 137 132 126 125 127 120 110 104 98 82 68 57 45 19 2 349 325 306 293 271 255 227 230 222 238 129 240 172